Location: Unspecified
(0.0000°N, 0.0000°E)
Time: 11:48:29
(UTC+00:00)

Envisat - Pass Details

Date: 16 January 2018
Orbit: 764 x 766 km, 98.2° (Epoch: 26 April)

Event Time Altitude Azimuth Distance (km) Brightness Sun altitude
Rises 19:15:29 0° 145° (SE) 3,227 6.1 -15.3°
Reaches altitude 10° 19:18:10 10° 132° (SE) 2,299 5.2 -15.9°
Enters shadow 19:21:09 23° 98° (E) 1,587 4.1 -16.6°
